Weather History for Inverness, United Kingdom

Change the Weather History Date:

Tuesday, June 11, 2013

  Actual Average Record
Temperature  
Mean Temperature 52 °F -  
Max Temperature 64 °F 61 °F 77 °F (2006)
Min Temperature 39 °F 48 °F 39 °F (1998)
Degree Days  
Heating Degree Days 14    
Growing Degree Days 2 (Base 50)    
Moisture  
Dew Point 48 °F    
Average Humidity 82    
Maximum Humidity 100    
Minimum Humidity 59    
Precipitation  
Precipitation 0.00 in - - ()
Sea Level Pressure  
Sea Level Pressure 29.80 in    
Wind  
Wind Speed 3 mph ()    
Max Wind Speed 10 mph    
Max Gust Speed -    
Visibility 5.7 miles    
Events Fog , Rain    
Averages and records for this station are not official NWS values.
T = Trace of Precipitation, MM = Missing Value Source: Averaged Metar Reports

Daily Weather History Graph

Daily Weather History Graph

Search for Another Location

Airport:

Trip Planner

Search our weather history database for the weather conditions in past years. The results will help you decide how hot, cold, wet, or windy it might be!

Date:

Astronomy

Jun. 11, 2013 Rise Set
Actual Time 4:18 AM BST 10:14 PM BST
Civil Twilight 3:08 AM BST 11:24 PM BST
Nautical Twilight 1:48 AM BST 12:43 AM BST
Astronomical Twilight Sun does not rise Sun does not rise
Moon 7:17 AM BST (6/11) 11:32 PM BST (6/11)
Length of Visible Light 20h 16m
Length of Day
17h 55m
Waxing Crescent, 7% of the Moon is Illuminated
Jun 11
Waxing Crescent
Jun 16
First Quarter
Jun 23
Full
Jun 30
Last Quarter
Jul 8
New

Hourly Weather History & Observations

Time (BST) Temp. Windchill Dew Point Humidity Pressure Visibility Wind Dir Wind Speed Gust Speed Precip Events Conditions
12:20 AM 48.2 °F - 46.4 °F 93% 29.89 in 6.2 mi South 2.3 mph - N/A   Unknown
12:50 AM 44.6 °F - 42.8 °F 93% 29.89 in - Calm Calm - N/A   Mist
1:20 AM 42.8 °F - 41.0 °F 93% 29.89 in 1.9 mi Variable 2.3 mph - N/A   Mist
1:50 AM 42.8 °F 41.1 °F 42.8 °F 100% 29.89 in 3.7 mi SW 3.5 mph - N/A   Unknown
2:20 AM 42.8 °F - 41.0 °F 93% 29.89 in - Calm Calm - N/A   Mist
2:50 AM 41.0 °F - 39.2 °F 93% 29.89 in 6.2 mi Calm Calm - N/A Fog Shallow Fog
3:20 AM 41.0 °F - 41.0 °F 100% 29.89 in 6.2 mi Variable 2.3 mph - N/A Fog Shallow Fog
3:50 AM 39.2 °F - 39.2 °F 100% 29.89 in - Calm Calm - N/A   Scattered Clouds
4:20 AM 39.2 °F - 39.2 °F 100% 29.86 in 0.6 mi Calm Calm - N/A   Mist
4:50 AM 39.2 °F - 39.2 °F 100% 29.86 in 1.9 mi Calm Calm - N/A   Mist
5:20 AM 41.0 °F - 41.0 °F 100% 29.86 in - SW 2.3 mph - N/A   Scattered Clouds
5:50 AM 46.4 °F - 46.4 °F 100% 29.86 in 3.7 mi SSW 2.3 mph - N/A   Overcast
6:20 AM 48.2 °F - 48.2 °F 100% 29.86 in 3.7 mi Calm Calm - N/A   Mostly Cloudy
6:50 AM 50.0 °F - 50.0 °F 100% 29.86 in 5.0 mi Calm Calm - N/A Fog Mostly Cloudy
7:20 AM 50.0 °F - 50.0 °F 100% 29.86 in 5.6 mi WSW 2.3 mph - N/A Fog Mostly Cloudy
7:50 AM 50.0 °F - 50.0 °F 100% 29.86 in 5.6 mi Calm Calm - N/A   Mostly Cloudy
8:20 AM 51.8 °F - 50.0 °F 94% 29.86 in 6.2 mi Calm Calm - N/A   Scattered Clouds
8:50 AM 57.2 °F - 50.0 °F 77% 29.86 in 6.2 mi Calm Calm - N/A   Partly Cloudy
9:20 AM 57.2 °F - 51.8 °F 82% 29.83 in 6.2 mi Variable 2.3 mph - N/A   Partly Cloudy
9:50 AM 57.2 °F - 51.8 °F 82% 29.83 in 6.2 mi Variable 2.3 mph - N/A   Partly Cloudy
10:20 AM 57.2 °F - 50.0 °F 77% 29.83 in 6.2 mi NE 5.8 mph - N/A   Scattered Clouds
10:50 AM 55.4 °F - 50.0 °F 82% 29.83 in 6.2 mi ENE 6.9 mph - N/A   Scattered Clouds
11:20 AM 59.0 °F - 51.8 °F 77% 29.80 in 6.2 mi ENE 6.9 mph - N/A   Scattered Clouds
11:50 AM 59.0 °F - 51.8 °F 77% 29.80 in 6.2 mi NE 8.1 mph - N/A   Scattered Clouds
12:20 PM 59.0 °F - 50.0 °F 72% 29.80 in 6.2 mi NE 10.4 mph - N/A   Scattered Clouds
12:50 PM 59.0 °F - 50.0 °F 72% 29.77 in 6.2 mi NE 8.1 mph - N/A   Partly Cloudy
1:20 PM 62.6 °F - 51.8 °F 68% 29.77 in 6.2 mi NE 8.1 mph - N/A   Partly Cloudy
1:50 PM 62.6 °F - 50.0 °F 63% 29.77 in 6.2 mi NNE 6.9 mph - N/A   Partly Cloudy
2:20 PM 62.6 °F - 50.0 °F 63% 29.77 in 6.2 mi NE 5.8 mph - N/A   Partly Cloudy
2:50 PM 64.4 °F - 50.0 °F 59% 29.77 in 6.2 mi Variable 3.5 mph - N/A   Partly Cloudy
3:20 PM 64.4 °F - 50.0 °F 59% 29.77 in 6.2 mi Variable 2.3 mph - N/A   Partly Cloudy
3:50 PM 60.8 °F - 50.0 °F 68% 29.77 in 6.2 mi SSW 5.8 mph - N/A Rain Light Rain
4:20 PM 59.0 °F - 50.0 °F 72% 29.77 in 6.2 mi South 10.4 mph - N/A Rain Light Rain
4:50 PM 60.8 °F - 50.0 °F 68% 29.77 in 6.2 mi South 9.2 mph - N/A   Partly Cloudy
5:20 PM 60.8 °F - 50.0 °F 68% 29.74 in 6.2 mi SSE 5.8 mph - N/A   Partly Cloudy
5:50 PM 60.8 °F - 50.0 °F 68% 29.74 in 6.2 mi ESE 5.8 mph - N/A   Partly Cloudy
6:20 PM 60.8 °F - 50.0 °F 68% 29.74 in 6.2 mi Calm Calm - N/A   Partly Cloudy
6:50 PM 60.8 °F - 51.8 °F 72% 29.74 in 6.2 mi SSW 5.8 mph - N/A   Partly Cloudy
7:20 PM 60.8 °F - 50.0 °F 68% 29.74 in 6.2 mi South 10.4 mph - N/A   Partly Cloudy
7:50 PM 59.0 °F - 50.0 °F 72% 29.74 in 6.2 mi South 8.1 mph - N/A   Partly Cloudy
8:20 PM 59.0 °F - 50.0 °F 72% 29.71 in 6.2 mi South 6.9 mph - N/A   Partly Cloudy
8:50 PM 59.0 °F - 50.0 °F 72% 29.71 in 6.2 mi South 5.8 mph - N/A   Partly Cloudy
9:20 PM 57.2 °F - 50.0 °F 77% 29.71 in 6.2 mi South 4.6 mph - N/A   Partly Cloudy
9:50 PM 57.2 °F - 50.0 °F 77% 29.71 in 6.2 mi SW 3.5 mph - N/A   Partly Cloudy
10:20 PM 57.2 °F - 50.0 °F 77% 29.71 in 6.2 mi Calm Calm - N/A   Mostly Cloudy
10:50 PM 55.4 °F - 51.8 °F 88% 29.71 in 6.2 mi ENE 3.5 mph - N/A   Mostly Cloudy
11:20 PM 55.4 °F - 51.8 °F 88% 29.71 in 6.2 mi East 4.6 mph - N/A   Mostly Cloudy
11:50 PM 55.4 °F - 51.8 °F 88% 29.68 in 6.2 mi Variable 2.3 mph - N/A   Overcast